�������l�o���
Date,Time,MP-1(��Sv/h),MP-2(��Sv/h),MP-3(��Sv/h),MP-4(��Sv/h),MP-5(��Sv/h),MP-6(��Sv/h),MP-7(��Sv/h),MP-8(��Sv/h),����,����(m/s),���J
2022/05/01,00:00,0.565,0.841,0.539,1.018,0.718,0.341,0.593,0.560,��쐼,8.6,��
2022/05/01,00:10,0.564,0.842,0.540,1.017,0.718,0.341,0.595,0.558,��쐼,8.4,��
2022/05/01,00:20,0.566,0.839,0.539,1.017,0.717,0.341,0.595,0.561,��쐼,8.0,��
2022/05/01,00:30,0.565,0.838,0.538,1.019,0.717,0.342,0.593,0.559,��쐼,7.9,��
2022/05/01,00:40,0.565,0.839,0.538,1.017,0.716,0.342,0.593,0.560,��쐼,8.8,��
2022/05/01,00:50,0.566,0.839,0.539,1.017,0.715,0.341,0.594,0.560,��쐼,8.3,��
2022/05/01,01:00,0.564,0.839,0.538,1.017,0.717,0.341,0.593,0.561,��쐼,8.2,��
2022/05/01,01:10,0.564,0.839,0.540,1.020,0.716,0.340,0.594,0.559,��쐼,8.2,��
2022/05/01,01:20,0.565,0.839,0.538,1.017,0.716,0.341,0.595,0.559,��쐼,7.8,��
2022/05/01,01:30,0.564,0.843,0.539,1.017,0.717,0.341,0.593,0.560,��쐼,8.3,��
2022/05/01,01:40,0.565,0.838,0.539,1.017,0.717,0.342,0.594,0.559,��쐼,8.5,��
2022/05/01,01:50,0.565,0.840,0.537,1.017,0.718,0.341,0.594,0.561,��쐼,8.7,��
2022/05/01,02:00,0.566,0.839,0.540,1.021,0.718,0.342,0.594,0.559,��쐼,8.5,��
2022/05/01,02:10,0.566,0.841,0.538,1.019,0.716,0.341,0.595,0.560,��쐼,8.1,��
2022/05/01,02:20,0.566,0.838,0.540,1.017,0.719,0.342,0.595,0.561,��쐼,7.5,��
2022/05/01,02:30,0.564,0.839,0.539,1.019,0.716,0.342,0.594,0.561,��쐼,7.8,��
2022/05/01,02:40,0.565,0.840,0.537,1.017,0.718,0.342,0.595,0.560,��쐼,7.9,��
2022/05/01,02:50,0.565,0.840,0.539,1.019,0.716,0.342,0.593,0.560,��쐼,8.3,��
2022/05/01,03:00,0.564,0.840,0.539,1.019,0.718,0.342,0.594,0.560,��쐼,7.4,��
2022/05/01,03:10,0.566,0.839,0.538,1.016,0.716,0.342,0.593,0.562,��쐼,5.6,��
2022/05/01,03:20,0.565,0.838,0.540,1.019,0.718,0.343,0.594,0.562,��쐼,5.1,��
2022/05/01,03:30,0.567,0.839,0.539,1.019,0.716,0.342,0.593,0.561,��쐼,5.0,��
2022/05/01,03:40,0.565,0.839,0.540,1.018,0.717,0.342,0.594,0.562,��쐼,6.0,��
2022/05/01,03:50,0.565,0.839,0.539,1.018,0.715,0.342,0.595,0.560,��쐼,7.5,��
2022/05/01,04:00,0.565,0.838,0.540,1.017,0.716,0.343,0.595,0.561,��,8.3,��
2022/05/01,04:10,0.567,0.839,0.539,1.020,0.716,0.342,0.593,0.560,��쐼,7.7,��
2022/05/01,04:20,0.565,0.838,0.539,1.019,0.718,0.343,0.595,0.562,��쐼,8.0,��
2022/05/01,04:30,0.567,0.840,0.541,1.018,0.718,0.341,0.594,0.560,��쐼,8.7,��
2022/05/01,04:40,0.567,0.841,0.541,1.022,0.718,0.342,0.596,0.562,��쐼,9.0,��
2022/05/01,04:50,0.566,0.838,0.539,1.018,0.717,0.341,0.594,0.562,��쐼,8.9,��
2022/05/01,05:00,0.566,0.839,0.540,1.019,0.717,0.343,0.593,0.560,��,9.7,��
2022/05/01,05:10,0.566,0.841,0.541,1.019,0.717,0.341,0.594,0.560,��쐼,9.4,��
2022/05/01,05:20,0.567,0.840,0.542,1.019,0.718,0.342,0.596,0.561,��,10.5,��
2022/05/01,05:30,0.567,0.838,0.539,1.020,0.718,0.342,0.595,0.562,��,8.9,��
2022/05/01,05:40,0.566,0.841,0.540,1.019,0.718,0.342,0.595,0.563,��,10.3,��
2022/05/01,05:50,0.567,0.840,0.539,1.019,0.717,0.341,0.596,0.562,��쐼,9.8,��
2022/05/01,06:00,0.567,0.841,0.540,1.020,0.719,0.343,0.596,0.561,��,10.2,��
2022/05/01,06:10,0.568,0.842,0.540,1.020,0.719,0.344,0.596,0.562,��쐼,9.7,��
2022/05/01,06:20,0.566,0.842,0.540,1.021,0.721,0.343,0.597,0.562,��,9.6,��
2022/05/01,06:30,0.567,0.841,0.540,1.021,0.719,0.344,0.595,0.562,��,10.2,��
2022/05/01,06:40,0.568,0.842,0.540,1.020,0.719,0.344,0.596,0.562,��쐼,10.0,��
2022/05/01,06:50,0.567,0.841,0.541,1.021,0.718,0.345,0.596,0.562,��,10.5,��
2022/05/01,07:00,0.568,0.842,0.540,1.021,0.720,0.344,0.593,0.562,��,9.1,��
2022/05/01,07:10,0.569,0.843,0.543,1.022,0.720,0.343,0.595,0.562,��,8.3,��
2022/05/01,07:20,0.568,0.842,0.542,1.020,0.719,0.342,0.595,0.562,��,7.3,��
2022/05/01,07:30,0.569,0.844,0.542,1.020,0.721,0.344,0.593,0.563,��쐼,7.9,��
2022/05/01,07:40,0.570,0.843,0.541,1.021,0.719,0.344,0.594,0.563,��쐼,6.0,��
2022/05/01,07:50,0.570,0.843,0.541,1.021,0.721,0.344,0.594,0.564,��,7.6,��
2022/05/01,08:00,0.567,0.844,0.541,1.021,0.720,0.345,0.594,0.563,��,8.2,��
2022/05/01,08:10,0.569,0.845,0.542,1.021,0.721,0.344,0.594,0.561,��,9.0,��
2022/05/01,08:20,0.570,0.844,0.543,1.021,0.720,0.343,0.595,0.564,��,7.0,��
2022/05/01,08:30,0.569,0.841,0.540,1.023,0.718,0.343,0.595,0.563,��,8.4,��
2022/05/01,08:40,0.566,0.842,0.543,1.021,0.719,0.344,0.595,0.563,��,8.0,��
2022/05/01,08:50,0.567,0.841,0.542,1.021,0.718,0.344,0.593,0.562,��,8.9,��
2022/05/01,09:00,0.568,0.842,0.543,1.021,0.719,0.343,0.593,0.562,��,10.9,��
2022/05/01,09:10,0.567,0.840,0.543,1.022,0.718,0.343,0.593,0.561,��,10.2,��
2022/05/01,09:20,0.568,0.841,0.542,1.024,0.718,0.342,0.592,0.562,��,12.4,��
2022/05/01,09:30,0.568,0.841,0.541,1.023,0.718,0.343,0.595,0.561,��쐼,9.7,��
2022/05/01,09:40,0.567,0.841,0.542,1.022,0.720,0.343,0.593,0.560,��,9.8,��
2022/05/01,09:50,0.568,0.841,0.540,1.024,0.719,0.345,0.592,0.561,��쐼,9.7,��
2022/05/01,10:00,0.567,0.840,0.541,1.023,0.719,0.342,0.594,0.562,��쐼,8.5,��
2022/05/01,10:10,0.568,0.840,0.541,1.022,0.720,0.341,0.593,0.560,��쐼,8.7,��
2022/05/01,10:20,0.566,0.840,0.539,1.024,0.719,0.342,0.594,0.561,��,8.4,��
2022/05/01,10:30,0.568,0.841,0.541,1.025,0.719,0.342,0.594,0.562,��,6.9,��
2022/05/01,10:40,0.568,0.842,0.540,1.023,0.718,0.343,0.595,0.562,��쐼,8.5,��
2022/05/01,10:50,0.567,0.841,0.540,1.023,0.719,0.343,0.594,0.562,��쐼,9.3,��
2022/05/01,11:00,0.570,0.842,0.542,1.024,0.719,0.343,0.594,0.562,��,8.0,��
2022/05/01,11:10,0.569,0.841,0.541,1.024,0.720,0.344,0.595,0.560,��,7.9,��
2022/05/01,11:20,0.568,0.840,0.542,1.027,0.719,0.344,0.594,0.562,��,8.0,��
2022/05/01,11:30,0.569,0.840,0.541,1.025,0.719,0.344,0.595,0.560,��,9.1,��
2022/05/01,11:40,0.568,0.841,0.541,1.024,0.721,0.342,0.596,0.562,��,9.8,��
2022/05/01,11:50,0.569,0.841,0.541,1.022,0.720,0.344,0.594,0.562,��쐼,6.4,��
2022/05/01,12:00,0.570,0.842,0.542,1.024,0.720,0.343,0.593,0.561,��,9.1,��
2022/05/01,12:10,0.569,0.842,0.543,1.023,0.720,0.343,0.594,0.560,��쓌,6.7,��
2022/05/01,12:20,0.568,0.842,0.541,1.024,0.722,0.342,0.595,0.561,��쓌,8.3,��
2022/05/01,12:30,0.567,0.844,0.539,1.026,0.721,0.343,0.595,0.561,��쓌,9.0,��
2022/05/01,12:40,0.569,0.840,0.540,1.024,0.722,0.342,0.593,0.563,��쓌,8.0,�L
2022/05/01,12:50,0.567,0.842,0.541,1.026,0.720,0.344,0.594,0.561,��,6.0,�L
2022/05/01,13:00,0.568,0.843,0.540,1.022,0.722,0.343,0.593,0.563,��,8.1,�L
2022/05/01,13:10,0.570,0.841,0.541,1.024,0.721,0.343,0.594,0.561,��,8.9,�L
2022/05/01,13:20,0.568,0.841,0.541,1.025,0.720,0.344,0.592,0.558,��,8.2,��
2022/05/01,13:30,0.570,0.840,0.541,1.025,0.719,0.345,0.594,0.560,��,9.7,�L
2022/05/01,13:40,0.570,0.843,0.544,1.024,0.723,0.345,0.594,0.561,��,8.7,�L
2022/05/01,13:50,0.570,0.842,0.542,1.025,0.719,0.344,0.595,0.562,��,7.9,�L
2022/05/01,14:00,0.569,0.841,0.542,1.025,0.719,0.344,0.593,0.562,��,7.6,�L
2022/05/01,14:10,0.569,0.839,0.540,1.022,0.720,0.345,0.593,0.560,��쐼,7.5,�L
2022/05/01,14:20,0.568,0.838,0.539,1.023,0.716,0.344,0.592,0.560,-,CALM,�L
2022/05/01,14:30,0.566,0.829,0.536,1.019,0.711,0.345,0.589,0.562,��쐼,7.9,�L
2022/05/01,14:40,0.566,0.828,0.536,1.019,0.710,0.343,0.590,0.558,��,7.8,�L
2022/05/01,14:50,0.563,0.828,0.535,1.017,0.707,0.344,0.588,0.558,��,5.9,�L
2022/05/01,15:00,0.562,0.824,0.533,1.012,0.705,0.343,0.589,0.557,��,5.5,�L
2022/05/01,15:10,0.559,0.819,0.531,1.007,0.702,0.345,0.587,0.556,��,5.1,�L
2022/05/01,15:20,0.560,0.821,0.531,1.007,0.702,0.344,0.587,0.556,��,8.4,�L
2022/05/01,15:30,0.558,0.820,0.532,1.006,0.703,0.342,0.587,0.555,��쐼,6.0,�L
2022/05/01,15:40,0.558,0.820,0.534,1.006,0.701,0.343,0.586,0.555,��쐼,5.5,�L
2022/05/01,15:50,0.559,0.818,0.531,1.006,0.702,0.343,0.586,0.554,��쐼,1.5,�L
2022/05/01,16:00,0.558,0.820,0.532,1.006,0.701,0.343,0.587,0.555,�k,4.2,�L
2022/05/01,16:10,0.556,0.818,0.531,1.001,0.699,0.343,0.585,0.555,�k,5.1,�L
2022/05/01,16:20,0.549,0.807,0.525,0.989,0.692,0.341,0.580,0.551,�k�k��,6.5,�L
2022/05/01,16:30,0.545,0.802,0.525,0.981,0.688,0.339,0.579,0.551,-,CALM,�L
2022/05/01,16:40,0.546,0.802,0.525,0.978,0.685,0.339,0.581,0.548,�k�k��,9.0,�L
2022/05/01,16:50,0.546,0.798,0.524,0.977,0.685,0.339,0.579,0.549,�k,8.6,�L
2022/05/01,17:00,0.540,0.798,0.523,0.970,0.678,0.338,0.578,0.546,-,CALM,�L
2022/05/01,17:10,0.540,0.797,0.523,0.967,0.676,0.337,0.576,0.545,�k�k��,8.9,�L
2022/05/01,17:20,0.541,0.794,0.521,0.964,0.672,0.336,0.575,0.546,�k�k��,4.2,�L
2022/05/01,17:30,0.541,0.796,0.521,0.961,0.672,0.337,0.574,0.546,�k,6.7,�L
2022/05/01,17:40,0.541,0.795,0.523,0.963,0.674,0.336,0.573,0.546,�k,9.8,�L
2022/05/01,17:50,0.542,0.796,0.522,0.962,0.673,0.337,0.577,0.549,�k,7.4,�L
2022/05/01,18:00,0.542,0.796,0.522,0.964,0.674,0.338,0.574,0.547,�k,6.8,�L
2022/05/01,18:10,0.545,0.797,0.522,0.966,0.675,0.338,0.576,0.546,�k�k��,5.6,�L
2022/05/01,18:20,0.544,0.797,0.524,0.965,0.673,0.338,0.574,0.549,�k,7.4,�L
2022/05/01,18:30,0.544,0.798,0.523,0.964,0.676,0.337,0.575,0.549,�k,7.8,�L
2022/05/01,18:40,0.545,0.798,0.523,0.968,0.676,0.338,0.575,0.548,�k�k��,6.6,�L
2022/05/01,18:50,0.544,0.801,0.524,0.966,0.676,0.339,0.575,0.549,�k�k��,5.7,�L
2022/05/01,19:00,0.547,0.799,0.525,0.969,0.678,0.339,0.574,0.551,�k�k��,4.7,�L
2022/05/01,19:10,0.547,0.799,0.523,0.967,0.677,0.339,0.574,0.549,�k,4.9,�L
2022/05/01,19:20,0.545,0.800,0.523,0.970,0.676,0.339,0.574,0.549,�k,5.1,�L
2022/05/01,19:30,0.548,0.802,0.525,0.969,0.677,0.336,0.575,0.549,�k,4.5,�L
2022/05/01,19:40,0.547,0.801,0.524,0.969,0.678,0.339,0.575,0.550,�k,5.7,�L
2022/05/01,19:50,0.547,0.802,0.525,0.970,0.675,0.338,0.576,0.549,�k,6.5,�L
2022/05/01,20:00,0.548,0.801,0.525,0.969,0.678,0.339,0.575,0.551,�k,6.1,�L
2022/05/01,20:10,0.545,0.798,0.524,0.969,0.675,0.339,0.576,0.549,�k,6.2,�L
2022/05/01,20:20,0.545,0.799,0.524,0.969,0.677,0.339,0.575,0.551,�k,7.0,�L
2022/05/01,20:30,0.545,0.797,0.525,0.967,0.671,0.339,0.574,0.550,�k,7.0,�L
2022/05/01,20:40,0.542,0.797,0.522,0.966,0.671,0.336,0.574,0.550,�k,6.2,�L
2022/05/01,20:50,0.546,0.797,0.522,0.964,0.672,0.339,0.575,0.548,�k,6.8,�L
2022/05/01,21:00,0.544,0.799,0.522,0.966,0.672,0.337,0.576,0.550,�k,7.3,�L
2022/05/01,21:10,0.544,0.797,0.523,0.966,0.672,0.339,0.575,0.549,�k,6.3,�L
2022/05/01,21:20,0.545,0.799,0.522,0.969,0.673,0.338,0.575,0.548,�k,5.9,�L
2022/05/01,21:30,0.543,0.800,0.523,0.969,0.672,0.338,0.576,0.549,�k�k��,5.5,�L
2022/05/01,21:40,0.545,0.799,0.523,0.968,0.672,0.338,0.574,0.550,�k,6.0,�L
2022/05/01,21:50,0.543,0.800,0.523,0.970,0.670,0.338,0.574,0.548,�k�k��,4.8,�L
2022/05/01,22:00,0.546,0.798,0.521,0.971,0.671,0.339,0.575,0.550,�k�k��,5.1,�L
2022/05/01,22:10,0.544,0.799,0.521,0.968,0.671,0.338,0.576,0.548,�k�k��,5.4,�L
2022/05/01,22:20,0.545,0.798,0.523,0.971,0.672,0.339,0.576,0.548,�k�k��,6.0,�L
2022/05/01,22:30,0.545,0.798,0.522,0.971,0.672,0.338,0.575,0.550,�k,6.1,�L
2022/05/01,22:40,0.545,0.799,0.521,0.972,0.672,0.338,0.575,0.550,�k,5.4,�L
2022/05/01,22:50,0.544,0.799,0.522,0.970,0.672,0.339,0.574,0.549,�k,5.6,�L
2022/05/01,23:00,0.544,0.800,0.523,0.973,0.671,0.339,0.576,0.548,�k�k��,5.7,�L
2022/05/01,23:10,0.546,0.800,0.522,0.974,0.673,0.339,0.576,0.550,�k�k��,5.7,�L
2022/05/01,23:20,0.545,0.806,0.524,0.976,0.673,0.339,0.576,0.550,�k�k��,5.8,�L
2022/05/01,23:30,0.545,0.804,0.524,0.977,0.674,0.338,0.577,0.549,�k�k��,4.7,��
2022/05/01,23:40,0.546,0.803,0.523,0.978,0.674,0.337,0.577,0.552,�k�k��,3.9,��
2022/05/01,23:50,0.546,0.805,0.524,0.978,0.674,0.337,0.577,0.550,�k�k��,4.1,��
